456P/PanSTARRS (2019)

Japanese version
Home page
Updated on February 8, 2023

---------------------------------------------------------------------

* Profile

Designation 456P/2021 L4
Discovery Date June 9, 2021
Magnitude 20.9 mag
Discoverer Pan-STARRS 1 telescope (Haleakala)

* Orbital Elements

                    Epoch = 2019 Aug. 25.0 TT
     T = 2019 Sept. 5.66915 TT        Peri. = 234.92054
     e = 0.1191406                    Node  = 243.23503 2000.0
     q = 2.7899378 AU                 Incl. =  16.95981
       a =  3.1672907 AU   n = 0.17485263   P =   5.64 years

* Magnitudes Graph

        H = 17.7  G = 0.15

---------------------------------------------------------------------

The orbital elements are printed on CBET 5210.
The magnitudes graphs are made with Comet for Windows.

---------------------------------------------------------------------

Copyright(C) Seiichi Yoshida (comet@aerith.net). All rights reserved.